Weather History for Madison, WI

Change the Weather History Date:

Saturday, April 19, 2014

  Actual Average Record
Temperature  
Mean Temperature 50 °F 48 °F  
Max Temperature 67 °F 59 °F 84 °F (1985)
Min Temperature 32 °F 37 °F 16 °F (1983)
Degree Days  
Heating Degree Days 15 17  
Month to date heating degree days 412 394  
Since 1 July heating degree days 7672 6843  
Cooling Degree Days 0 0  
Month to date cooling degree days 0 0  
Year to date cooling degree days 0 0  
Moisture  
Dew Point 31 °F    
Average Humidity 53    
Maximum Humidity 75    
Minimum Humidity 31    
Precipitation  
Precipitation 0.00 in 0.11 in 1.13 in (2011)
Month to date precipitation 3.35 2.13  
Year to date precipitation 6.50 7.01  
Snow  
Snow 0.00 in 0.10 in 1.30 in (2011)
Month to date snowfall 1.0 2.1  
Since 1 July snowfall 59.2 50.2  
Snow Depth 0.00 in    
Sea Level Pressure  
Sea Level Pressure 30.30 in    
Wind  
Wind Speed 11 mph (SE)    
Max Wind Speed 23 mph    
Max Gust Speed 29 mph    
Visibility 10 miles    
Events      
T = Trace of Precipitation, MM = Missing Value Source: NWS Daily Summary

Daily Weather History Graph

Daily Weather History Graph

Search for Another Location

Airport:

Trip Planner

Search our weather history database for the weather conditions in past years. The results will help you decide how hot, cold, wet, or windy it might be!

Date:

Astronomy

Apr. 19, 2014 Rise Set
Actual Time 6:08 AM CDT 7:44 PM CDT
Civil Twilight 5:38 AM CDT 8:14 PM CDT
Nautical Twilight 5:02 AM CDT 8:51 PM CDT
Astronomical Twilight 4:24 AM CDT 9:30 PM CDT
Moon No Moon Rise 9:23 AM CDT (4/19)
Length of Visible Light 14h 35m
Length of Day
13h 35m
Waning Gibbous, 78% of the Moon is Illuminated
Apr 19
Waning Gibbous
Apr 22
Last Quarter
Apr 29
New
May 6
First Quarter
May 14
Full

Hourly Weather History & Observations

Time (CDT) Temp. Windchill Dew Point Humidity Pressure Visibility Wind Dir Wind Speed Gust Speed Precip Events Conditions
12:53 AM 35.1 °F 27.9 °F 26.1 °F 70% 30.39 in 10.0 mi East 9.2 mph - N/A   Clear
1:53 AM 34.0 °F 28.0 °F 25.0 °F 70% 30.39 in 10.0 mi ESE 6.9 mph - N/A   Clear
2:53 AM 34.0 °F 28.8 °F 25.0 °F 70% 30.40 in 10.0 mi ESE 5.8 mph - N/A   Clear
3:53 AM 33.8 °F 30.8 °F 24.8 °F 70% 30.38 in 10.0 mi East 3.5 mph - N/A   Clear
4:53 AM 32.0 °F 26.4 °F 24.1 °F 73% 30.40 in 10.0 mi East 5.8 mph - N/A   Clear
5:53 AM 33.1 °F 26.9 °F 25.0 °F 72% 30.39 in 10.0 mi East 6.9 mph - N/A   Partly Cloudy
6:53 AM 34.0 °F 28.8 °F 26.1 °F 73% 30.40 in 10.0 mi East 5.8 mph - N/A   Partly Cloudy
7:53 AM 37.0 °F 29.3 °F 27.0 °F 67% 30.41 in 10.0 mi East 11.5 mph - N/A   Partly Cloudy
8:53 AM 42.1 °F 35.7 °F 28.9 °F 60% 30.39 in 10.0 mi ESE 11.5 mph - N/A   Partly Cloudy
9:53 AM 46.9 °F - 28.9 °F 50% 30.37 in 10.0 mi ESE 11.5 mph 20.7 mph N/A   Scattered Clouds
10:53 AM 52.0 °F - 30.0 °F 43% 30.36 in 10.0 mi ESE 12.7 mph - N/A   Mostly Cloudy
11:53 AM 54.0 °F - 30.9 °F 41% 30.33 in 10.0 mi SSE 12.7 mph - N/A   Mostly Cloudy
12:53 PM 59.0 °F - 34.0 °F 39% 30.31 in 10.0 mi SSE 18.4 mph - N/A   Scattered Clouds
1:53 PM 61.0 °F - 35.1 °F 38% 30.28 in 10.0 mi South 18.4 mph 23.0 mph N/A   Scattered Clouds
2:53 PM 64.0 °F - 34.0 °F 33% 30.25 in 10.0 mi South 16.1 mph 25.3 mph N/A   Mostly Cloudy
3:53 PM 64.9 °F - 33.1 °F 31% 30.21 in 10.0 mi South 19.6 mph - N/A   Mostly Cloudy
4:53 PM 66.9 °F - 36.0 °F 32% 30.19 in 10.0 mi South 19.6 mph - N/A   Mostly Cloudy
5:53 PM 66.0 °F - 35.1 °F 32% 30.18 in 10.0 mi South 13.8 mph - N/A   Mostly Cloudy
6:53 PM 64.9 °F - 35.1 °F 33% 30.18 in 10.0 mi South 10.4 mph - N/A   Mostly Cloudy
7:53 PM 62.1 °F - 35.1 °F 37% 30.19 in 10.0 mi South 5.8 mph - N/A   Mostly Cloudy
8:53 PM 57.9 °F - 36.0 °F 44% 30.18 in 10.0 mi SSE 5.8 mph - N/A   Mostly Cloudy
9:53 PM 57.0 °F - 36.0 °F 45% 30.19 in 10.0 mi SE 9.2 mph - N/A   Mostly Cloudy
10:53 PM 55.0 °F - 39.0 °F 55% 30.18 in 10.0 mi South 11.5 mph - N/A   Scattered Clouds
11:53 PM 54.0 °F - 39.0 °F 57% 30.18 in 10.0 mi SSE 12.7 mph - N/A   Clear